Satellite: ISS
Catalog number: 25544
Epoch time:      10113.00621263
Element set:      25
Inclination:      051.6471 deg
RA of node:       153.7726 deg
Eccentricity:    0.0003214
Arg of perigee:   195.6601 deg
Mean anomaly:     237.1721 deg
Mean motion:   15.75128884 rev/day
Decay rate:     2.5402e-04 rev/day^2
Epoch rev:           65478
Checksum:              268

Satellite: CO-58
Catalog number: 28895
Epoch time:      10112.67044317
Element set:     564
Inclination:      098.0238 deg
RA of node:       358.9648 deg
Eccentricity:    0.0019423
Arg of perigee:   100.2381 deg
Mean anomaly:     260.1026 deg
Mean motion:   14.59878004 rev/day
Decay rate:        8.3e-07 rev/day^2
Epoch rev:           23888
Checksum:              318

Satellite: FALCON
Catalog number: 30776
Epoch time:      10112.10783684
Element set:     811
Inclination:      035.4339 deg
RA of node:       024.7464 deg
Eccentricity:    0.0000726
Arg of perigee:   358.5805 deg
Mean anomaly:     001.4909 deg
Mean motion:   15.03606723 rev/day
Decay rate:       8.63e-06 rev/day^2
Epoch rev:           17161
Checksum:              276

Satellite: MAST
Catalog number: 31126
Epoch time:      10112.67124242
Element set:     847
Inclination:      097.9424 deg
RA of node:       157.5380 deg
Eccentricity:    0.0095717
Arg of perigee:   039.1867 deg
Mean anomaly:     321.6197 deg
Mean motion:   14.53577249 rev/day
Decay rate:        8.7e-07 rev/day^2
Epoch rev:           15999
Checksum:              326

Satellite: CAPE1
Catalog number: 31130
Epoch time:      10112.04898588
Element set:     867
Inclination:      097.9454 deg
RA of node:       154.4706 deg
Eccentricity:    0.0104122
Arg of perigee:   048.6935 deg
Mean anomaly:     312.3137 deg
Mean motion:   14.52166297 rev/day
Decay rate:       4.02e-06 rev/day^2
Epoch rev:           15951
Checksum:              294

Satellite: COMPASS
Catalog number: 32787
Epoch time:      10111.71887753
Element set:     651
Inclination:      097.8978 deg
RA of node:       177.2419 deg
Eccentricity:    0.0016996
Arg of perigee:   107.7577 deg
Mean anomaly:     252.5501 deg
Mean motion:   14.81833471 rev/day
Decay rate:       1.34e-06 rev/day^2
Epoch rev:           10713
Checksum:              322

Satellite: AAUSAT2
Catalog number: 32788
Epoch time:      10112.13245443
Element set:     645
Inclination:      097.8991 deg
RA of node:       177.7652 deg
Eccentricity:    0.0016769
Arg of perigee:   107.0888 deg
Mean anomaly:     253.2213 deg
Mean motion:   14.81973506 rev/day
Decay rate:       1.43e-06 rev/day^2
Epoch rev:           10720
Checksum:              304

Satellite: DO-64
Catalog number: 32789
Epoch time:      10112.68638221
Element set:     662
Inclination:      097.9041 deg
RA of node:       178.7245 deg
Eccentricity:    0.0016777
Arg of perigee:   104.5495 deg
Mean anomaly:     255.7583 deg
Mean motion:   14.82090192 rev/day
Decay rate:      1.052e-05 rev/day^2
Epoch rev:           10728
Checksum:              320

Satellite: CO-66
Catalog number: 32791
Epoch time:      10112.67820081
Element set:     643
Inclination:      097.8987 deg
RA of node:       178.2097 deg
Eccentricity:    0.0017214
Arg of perigee:   102.8555 deg
Mean anomaly:     257.4579 deg
Mean motion:   14.81629076 rev/day
Decay rate:       5.82e-06 rev/day^2
Epoch rev:           10723
Checksum:              328

Satellite: RS-30
Catalog number: 32953
Epoch time:      10112.83303179
Element set:     625
Inclination:      082.5005 deg
RA of node:       064.0950 deg
Eccentricity:    0.0017419
Arg of perigee:   221.1712 deg
Mean anomaly:     138.8054 deg
Mean motion:   12.43004828 rev/day
Decay rate:        1.0e-07 rev/day^2
Epoch rev:            8686
Checksum:              260

Satellite: TACSAT-3
Catalog number: 35001
Epoch time:      10112.65769904
Element set:     269
Inclination:      040.4552 deg
RA of node:       187.5540 deg
Eccentricity:    0.0022851
Arg of perigee:   308.7877 deg
Mean anomaly:     051.0898 deg
Mean motion:   15.41271120 rev/day
Decay rate:      5.192e-05 rev/day^2
Epoch rev:            5206
Checksum:              282

Satellite: PHARMSAT
Catalog number: 35002
Epoch time:      10111.59492430
Element set:     254
Inclination:      040.4711 deg
RA of node:       192.1447 deg
Eccentricity:    0.0025842
Arg of perigee:   304.7765 deg
Mean anomaly:     055.0620 deg
Mean motion:   15.41834883 rev/day
Decay rate:      4.353e-05 rev/day^2
Epoch rev:            5191
Checksum:              261

Satellite: HAWKSAT1
Catalog number: 35003
Epoch time:      10112.57869348
Element set:     271
Inclination:      040.4631 deg
RA of node:       182.5396 deg
Eccentricity:    0.0023337
Arg of perigee:   322.5446 deg
Mean anomaly:     037.3745 deg
Mean motion:   15.44410147 rev/day
Decay rate:      9.347e-05 rev/day^2
Epoch rev:            5211
Checksum:              273

Satellite: CP6
Catalog number: 35004
Epoch time:      10111.56829325
Element set:     263
Inclination:      040.4645 deg
RA of node:       188.0846 deg
Eccentricity:    0.0022253
Arg of perigee:   315.1825 deg
Mean anomaly:     044.7195 deg
Mean motion:   15.45025355 rev/day
Decay rate:     1.0436e-04 rev/day^2
Epoch rev:            5195
Checksum:              276

